[[{"header":{"parameterUnit":"m.s-1","parameterCategory":1,"la1":30.2991,"la2":30.254,"lo1":-89.0895,"lo2":-89.0444,"dy":0.0017,"dx":0.0017,"nx":28,"ny":28,"refTime":"2024-09-26T03:00:00:Z","depth":0,"parameterNumber":2,"parameterNumberName":"U-component_of_WINDS"},"data":[0,0,0,0,0,0,0,0,0,0,0,0,0,0,0,0,0,0,0,0,0,0,0,0,0,0,0,0,0,0,0,0,0,0,0,0,0,0,0,0,0,0,0,0,0,0,0,0,0,0,0,0,0,0,0,0,0,0,6.7856,6.7858,0,6.8034,6.8036,6.8038,6.7992,6.7988,6.7985,6.7981,6.8165,6.8173,6.8181,0,0,0,0,0,0,0,0,0,0,0,0,0,6.748,6.7487,6.7856,6.7858,6.7861,6.8034,6.8036,6.8039,6.7992,6.7988,6.7984,6.798,6.8163,6.8172,6.8182,0,0,0,0,0,0,0,0,0,0,0,0,0,6.7649,6.7489,6.7856,6.7858,6.786,6.8033,6.8036,6.8039,6.7993,6.7988,6.7983,6.7978,6.8159,6.8171,6.8183,6.8365,0,0,6.8221,6.8226,0,0,0,0,0,0,0,0,6.7639,6.7663,6.7856,6.7859,6.7861,6.7985,6.7971,6.8149,6.7995,6.7943,6.7981,6.7975,6.811,6.8126,6.8171,6.8374,6.8382,6.8222,6.823,6.8235,6.8238,0,0,0,0,0,0,0,6.7628,6.7655,6.7926,6.7859,6.7862,6.7852,6.787,6.8004,6.8054,6.7947,6.7944,6.7966,6.811,6.8159,6.8175,6.8384,6.8222,6.8233,6.824,6.8245,6.8748,6.8753,0,0,0,0,0,0,6.7614,6.7646,6.7921,6.7932,6.7735,6.7863,6.7883,6.7951,6.8052,6.8063,6.797,6.7963,6.8141,6.8161,6.8181,6.8402,6.8235,6.8246,6.8253,6.8742,6.8749,6.8756,0,0,0,0,0,0,6.7606,6.7639,6.7914,6.7788,6.7822,6.7875,6.7951,6.7957,6.8006,6.807,6.8078,6.8011,6.8137,6.8164,6.832,6.8408,6.8252,6.8263,6.8735,6.8744,6.8752,6.8845,0,0,0,0,0,0,6.7595,6.7636,6.7705,6.779,6.7829,6.8049,6.7957,6.7964,6.8027,6.8019,6.811,6.812,6.8135,6.8302,6.8332,6.8422,6.8273,6.8727,6.8739,6.8749,6.8834,6.8856,6.8874,0,0,0,0,0,6.7582,6.7724,6.7709,6.7742,6.7916,6.8054,6.8077,6.8091,6.8034,6.8104,6.8146,6.8117,6.8393,6.8318,6.8352,6.8447,6.8722,6.8736,6.8749,6.8825,6.8851,6.8874,0,0,0,0,0,0,6.7648,6.7735,6.7719,6.7892,6.7966,6.8046,6.8135,6.8118,6.821,6.8199,6.8213,6.8234,6.8394,6.8436,6.8351,6.8629,6.8549,6.857,6.8596,6.8622,6.8641,6.8628,6.8283,0,0,0,0,0,6.7682,6.7786,6.7857,6.8003,6.8041,6.8082,6.8143,6.8147,6.8224,6.8256,6.8308,6.8385,6.8489,6.8557,6.8657,6.884,6.886,6.8922,6.8941,6.8958,6.8976,6.9078,6.9107,6.88,6.88,6.8799,0,0,6.7755,6.7815,6.788,6.8018,6.8076,6.8185,6.8109,6.8226,6.8308,6.8274,6.8425,6.8466,6.8553,6.8724,6.8802,6.8764,6.9065,6.8975,6.8987,6.8997,6.9095,6.9124,6.9149,6.8809,6.8807,6.8806,0,0,6.7943,6.7999,6.8128,6.8187,6.8276,6.8302,6.8333,6.8417,6.8443,6.8594,6.8572,6.8669,6.8848,6.8911,6.8967,6.9181,6.9159,6.9213,6.9319,6.9418,6.9442,6.9463,6.9542,6.9569,6.9231,6.9231,6.9231,0,6.8023,6.8185,6.8196,6.8317,6.8379,6.8353,6.8485,6.8542,6.8659,6.8703,6.8658,6.8883,6.894,6.9126,6.9179,6.9224,6.9261,6.9203,6.9437,6.9459,6.9479,6.9554,6.9583,6.9237,6.9237,6.9236,6.9235,0,6.8279,6.8392,6.8486,6.8599,6.8672,6.8797,6.8829,6.8901,6.89,6.8931,6.9087,6.9154,6.9268,6.9312,6.9312,6.95,6.9473,6.9433,6.9354,6.9515,6.9585,6.9614,6.9246,6.9244,6.9242,6.9241,0,0,6.8514,6.8632,6.8667,6.8719,6.8815,6.8903,6.9028,6.9139,6.9202,6.9283,6.939,6.9542,6.9506,6.9569,6.9576,6.9663,6.9831,6.9613,6.9615,6.9652,7.0044,7.0075,7.0107,6.9817,6.9822,6.9827,7.0037,0,6.8711,6.8931,6.8946,6.9145,6.925,6.9228,6.9337,6.9409,6.9442,6.9538,6.9574,6.9683,6.9626,6.9665,6.975,6.9793,6.991,6.9777,6.9917,6.9922,6.9897,7.0144,7.0176,7.0372,7.0065,7.0069,7.0073,0,6.8972,6.9061,6.9271,6.9354,6.9399,6.9497,6.96,6.9691,6.9773,6.9791,6.9863,6.9858,6.9988,6.9903,7.0083,6.9993,7.0051,7.0081,7.0089,7.0103,7.0008,7.0166,7.0434,7.0464,7.0116,7.0113,7.0109,0,6.9124,6.9297,6.9445,6.949,6.959,6.966,6.9705,6.9782,6.9848,6.9938,6.9982,7.0087,7.0144,7.0226,7.0251,7.0186,7.0431,7.0348,7.0451,7.0451,7.0504,7.0501,7.0787,7.054,7.054,7.0539,7.0538,0,6.9344,6.9473,6.9515,6.9607,6.9752,6.9768,6.9911,6.9952,7.0021,7.0121,7.0108,7.0202,7.0228,7.0327,7.0347,7.0495,7.052,7.054,7.0544,7.0542,7.054,7.0581,7.0568,7.0547,7.0545,7.0544,7.0542,0,6.9539,6.9571,6.9732,6.9814,6.9838,6.9941,7.0012,7.0101,7.0132,7.0259,7.029,7.034,7.0457,7.0489,7.0628,7.0642,7.0816,7.0806,7.0788,7.0788,7.089,7.0881,7.1214,7.1259,7.0981,7.0984,7.0986,0,6.9677,6.9777,6.987,6.9935,6.9984,7.009,7.0157,7.0177,7.0249,7.035,7.0427,7.0542,7.0635,7.0823,7.0872,7.098,7.0974,7.1083,7.099,7.0985,7.0977,7.0971,7.0982,7.1101,7.1104,7.1106,7.1108,0,6.9921,6.9933,7.003,7.0135,7.0216,7.0299,7.0378,7.0433,7.0465,7.0546,7.0664,7.0737,7.088,7.0995,7.1103,7.1151,7.1136,7.1137,7.1167,7.1166,7.1152,7.1163,7.0838,7.1129,7.1127,7.1126,7.1124,7.1124,7.0094,7.0181,7.0261,7.037,7.0432,7.0507,7.0595,7.0638,7.0737,7.0855,7.0861,7.0991,7.1072,7.1216,7.127,7.1372,7.134,7.1383,7.1394,7.1405,7.1414,7.1135,7.1392,7.1392,7.1391,7.1391,7.139,0,7.0338,7.0388,7.0489,7.0601,7.0687,7.0665,7.0752,7.0826,7.094,7.1017,7.1109,7.1246,7.1358,7.1417,7.1528,7.1599,7.1595,7.1628,7.1623,7.1635,7.1436,7.1399,7.1629,7.1629,7.1629,7.1629,7.1629,7.1629,7.0475,7.0623,7.0645,7.0824,7.0873,7.1,7.1052,7.1122,7.1183,7.1337,7.143,7.1467,7.1537,7.1653,7.1756,7.177,7.1812,7.1849,7.186,7.1673,7.1649,7.1626,7.1592,7.1858,7.1858,7.2051,7.2053,7.2054]},{"header":{"parameterUnit":"m.s-1","parameterCategory":1,"la1":30.2991,"la2":30.254,"lo1":-89.0895,"lo2":-89.0444,"dy":0.0017,"dx":0.0017,"nx":28,"ny":28,"refTime":"2024-09-26T03:00:00:Z","depth":0,"parameterNumber":3,"parameterNumberName":"V-component_of_WINDS"},"data":[0,0,0,0,0,0,0,0,0,0,0,0,0,0,0,0,0,0,0,0,0,0,0,0,0,0,0,0,0,0,0,0,0,0,0,0,0,0,0,0,0,0,0,0,0,0,0,0,0,0,0,0,0,0,0,0,0,0,-1.1215,-1.1215,0,-1.1249,-1.1249,-1.1249,-1.124,-1.1239,-1.1238,-1.1238,-1.1273,-1.1275,-1.1276,0,0,0,0,0,0,0,0,0,0,0,0,0,-1.1143,-1.1144,-1.1215,-1.1215,-1.1215,-1.1249,-1.1249,-1.1249,-1.124,-1.1239,-1.1238,-1.1237,-1.1273,-1.1274,-1.1276,0,0,0,0,0,0,0,0,0,0,0,0,0,-1.1175,-1.1145,-1.1215,-1.1215,-1.1215,-1.1248,-1.1249,-1.125,-1.124,-1.1239,-1.1238,-1.1237,-1.1272,-1.1274,-1.1277,-1.1312,0,0,-1.1284,-1.1285,0,0,0,0,0,0,0,0,-1.1173,-1.1178,-1.1214,-1.1215,-1.1215,-1.1239,-1.1237,-1.1271,-1.124,-1.1231,-1.1238,-1.1237,-1.1263,-1.1266,-1.1274,-1.1314,-1.1315,-1.1284,-1.1285,-1.1287,-1.1287,0,0,0,0,0,0,0,-1.1171,-1.1176,-1.1228,-1.1215,-1.1215,-1.1214,-1.1217,-1.1243,-1.1252,-1.1231,-1.1231,-1.1235,-1.1263,-1.1272,-1.1275,-1.1316,-1.1284,-1.1286,-1.1288,-1.1288,-1.1388,-1.1389,0,0,0,0,0,0,-1.1168,-1.1175,-1.1227,-1.1229,-1.1191,-1.1216,-1.122,-1.1232,-1.1252,-1.1254,-1.1236,-1.1234,-1.1268,-1.1272,-1.1276,-1.132,-1.1287,-1.1289,-1.129,-1.1387,-1.1388,-1.1389,0,0,0,0,0,0,-1.1167,-1.1173,-1.1226,-1.1202,-1.1208,-1.1218,-1.1233,-1.1234,-1.1243,-1.1255,-1.1257,-1.1244,-1.1268,-1.1273,-1.1304,-1.1321,-1.129,-1.1292,-1.1385,-1.1387,-1.1389,-1.1408,0,0,0,0,0,0,-1.1165,-1.1173,-1.1186,-1.1202,-1.121,-1.1252,-1.1234,-1.1235,-1.1247,-1.1245,-1.1263,-1.1265,-1.1267,-1.13,-1.1306,-1.1324,-1.1294,-1.1384,-1.1386,-1.1388,-1.1406,-1.141,-1.1414,0,0,0,0,0,-1.1162,-1.119,-1.1187,-1.1193,-1.1226,-1.1253,-1.1257,-1.126,-1.1248,-1.1262,-1.127,-1.1264,-1.1318,-1.1303,-1.131,-1.1329,-1.1383,-1.1385,-1.1388,-1.1404,-1.1409,-1.1414,0,0,0,0,0,0,-1.1175,-1.1192,-1.1188,-1.1222,-1.1236,-1.1251,-1.1268,-1.1265,-1.1283,-1.1281,-1.1283,-1.1287,-1.1319,-1.1327,-1.131,-1.1365,-1.1349,-1.1353,-1.1359,-1.1364,-1.1368,-1.1365,-1.1296,0,0,0,0,0,-1.1182,-1.1202,-1.1215,-1.1243,-1.1251,-1.1258,-1.127,-1.1271,-1.1286,-1.1292,-1.1302,-1.1317,-1.1338,-1.1351,-1.1371,-1.1407,-1.1411,-1.1423,-1.1427,-1.1431,-1.1434,-1.1455,-1.1461,-1.1398,-1.1398,-1.1398,0,0,-1.1196,-1.1207,-1.122,-1.1246,-1.1257,-1.1279,-1.1264,-1.1286,-1.1303,-1.1295,-1.1325,-1.1333,-1.1351,-1.1385,-1.14,-1.1392,-1.1453,-1.1434,-1.1437,-1.1439,-1.1459,-1.1465,-1.147,-1.14,-1.14,-1.14,0,0,-1.1232,-1.1242,-1.1268,-1.1279,-1.1297,-1.1302,-1.1308,-1.1324,-1.1329,-1.1359,-1.1355,-1.1374,-1.1409,-1.1422,-1.1433,-1.1476,-1.1472,-1.1483,-1.1504,-1.1525,-1.153,-1.1534,-1.155,-1.1556,-1.1486,-1.1486,-1.1486,0,-1.1247,-1.1279,-1.1281,-1.1305,-1.1317,-1.1312,-1.1338,-1.1349,-1.1372,-1.1381,-1.1372,-1.1417,-1.1428,-1.1466,-1.1476,-1.1485,-1.1493,-1.1481,-1.1529,-1.1533,-1.1537,-1.1553,-1.1559,-1.1487,-1.1487,-1.1487,-1.1487,0,-1.1297,-1.1319,-1.1338,-1.136,-1.1375,-1.1399,-1.1406,-1.142,-1.142,-1.1427,-1.1458,-1.1471,-1.1494,-1.1503,-1.1503,-1.1541,-1.1536,-1.1528,-1.1512,-1.1544,-1.1559,-1.1565,-1.1489,-1.1489,-1.1488,-1.1488,0,0,-1.1342,-1.1366,-1.1373,-1.1384,-1.1403,-1.1421,-1.1446,-1.1468,-1.1481,-1.1497,-1.1519,-1.1549,-1.1542,-1.1555,-1.1557,-1.1575,-1.1609,-1.1564,-1.1565,-1.1573,-1.1654,-1.166,-1.1667,-1.1607,-1.1608,-1.1609,-1.1653,0,-1.1381,-1.1425,-1.1428,-1.1468,-1.1489,-1.1485,-1.1507,-1.1522,-1.1529,-1.1548,-1.1556,-1.1578,-1.1567,-1.1575,-1.1592,-1.1601,-1.1626,-1.1598,-1.1628,-1.1629,-1.1624,-1.1675,-1.1681,-1.1722,-1.1658,-1.1659,-1.166,0,-1.1432,-1.145,-1.1492,-1.151,-1.1519,-1.1538,-1.156,-1.1578,-1.1595,-1.1599,-1.1614,-1.1614,-1.164,-1.1623,-1.1661,-1.1642,-1.1655,-1.1661,-1.1663,-1.1666,-1.1647,-1.168,-1.1735,-1.1742,-1.1669,-1.1668,-1.1668,0,-1.1462,-1.1497,-1.1527,-1.1536,-1.1557,-1.1571,-1.158,-1.1597,-1.161,-1.1629,-1.1638,-1.166,-1.1672,-1.169,-1.1696,-1.1682,-1.1734,-1.1716,-1.1738,-1.1738,-1.175,-1.1749,-1.1808,-1.1756,-1.1756,-1.1756,-1.1756,0,-1.1505,-1.1531,-1.154,-1.1559,-1.1589,-1.1592,-1.1622,-1.1631,-1.1645,-1.1666,-1.1664,-1.1684,-1.169,-1.1711,-1.1715,-1.1747,-1.1752,-1.1757,-1.1758,-1.1757,-1.1757,-1.1766,-1.1763,-1.1758,-1.1757,-1.1757,-1.1757,0,-1.1543,-1.155,-1.1583,-1.1601,-1.1606,-1.1627,-1.1642,-1.1661,-1.1668,-1.1694,-1.1701,-1.1712,-1.1737,-1.1744,-1.1774,-1.1777,-1.1814,-1.1812,-1.1808,-1.1809,-1.1831,-1.1829,-1.1898,-1.1908,-1.1849,-1.185,-1.185,0,-1.1571,-1.1591,-1.1611,-1.1625,-1.1635,-1.1657,-1.1671,-1.1676,-1.1691,-1.1713,-1.1729,-1.1753,-1.1773,-1.1814,-1.1825,-1.1848,-1.1847,-1.187,-1.1851,-1.185,-1.1849,-1.1848,-1.1851,-1.1874,-1.1874,-1.1875,-1.1875,0,-1.1619,-1.1622,-1.1642,-1.1665,-1.1682,-1.1699,-1.1716,-1.1728,-1.1735,-1.1753,-1.1778,-1.1794,-1.1824,-1.1849,-1.1873,-1.1884,-1.1882,-1.1881,-1.1888,-1.1888,-1.1885,-1.1888,-1.1819,-1.188,-1.1879,-1.1879,-1.1879,-1.1879,-1.1654,-1.1672,-1.1689,-1.1712,-1.1726,-1.1742,-1.1761,-1.177,-1.1791,-1.1817,-1.1819,-1.1847,-1.1865,-1.1896,-1.1908,-1.1931,-1.1924,-1.1933,-1.1936,-1.1938,-1.1941,-1.1881,-1.1935,-1.1935,-1.1935,-1.1935,-1.1935,0,-1.1703,-1.1714,-1.1735,-1.176,-1.1778,-1.1774,-1.1793,-1.1809,-1.1834,-1.185,-1.187,-1.19,-1.1925,-1.1938,-1.1963,-1.1979,-1.1978,-1.1985,-1.1985,-1.1987,-1.1945,-1.1937,-1.1985,-1.1985,-1.1985,-1.1985,-1.1985,-1.1985,-1.1731,-1.1762,-1.1767,-1.1805,-1.1816,-1.1844,-1.1855,-1.187,-1.1884,-1.1918,-1.1938,-1.1947,-1.1963,-1.1989,-1.2012,-1.2015,-1.2025,-1.2032,-1.2035,-1.1995,-1.199,-1.1985,-1.1978,-1.2034,-1.2034,-1.2076,-1.2077,-1.2077]}]]